Preview of NWS' New Version of Forecast
This preview is not operational and should not be used for support decisions.

Regional Weather Roundup (RWR)

Issued by Philadelphia/Mt Holly (PHI)

                            
000
ASUS41 KPHI 232212
RWRPHI

REGIONAL WEATHER ROUNDUP
NATIONAL WEATHER SERVICE MOUNT HOLLY NJ
600 PM EDT SAT MAR 23 2019

NOTE:  "FAIR" INDICATES FEW OR NO CLOUDS BELOW 12,000 FEET WITH NO
SIGNIFICANT WEATHER AND/OR OBSTRUCTIONS TO VISIBILITY.

 * = STATION DOES NOT REPORT PRECIPITATION (E.G. RAIN, SNOW, ETC.) 
        OR FOG.

NJZ015>026-232300-
SOUTHERN NEW JERSEY
  
CITY           SKY/WX    TMP DP  RH WIND       PRES   REMARKS
POMONA         FAIR      51  15  23 NW21G38   30.03R                  
WILDWOOD*      FAIR      49  28  44 NW12G18   30.09R                  
MILLVILLE      FAIR      50  14  23 W22G31    30.07R                  
WRIGHTSTOWN    FAIR      50  12  21 NW25G35   30.00R                  
MOUNT HOLLY    FAIR      51  12  21 W17G28    30.04R                  
TRENTON        FAIR      50  11  20 NW16G26   30.03R                  

$$
NJZ001>014-232300-
NORTHERN NEW JERSEY
  
CITY           SKY/WX    TMP DP  RH WIND       PRES   REMARKS
SUSSEX         FAIR      44   9  23 VRB7G20   30.03R                  
ANDOVER*         N/A     44  11  26 NW8G22    30.02R                  
MORRISTOWN     SUNNY     46  16  29 NW15G31   30.02R                  
NEWARK         FAIR      48   7  18 NW22G36   30.00R                  
TETERBORO      FAIR      47  15  27 NW22G28   29.99R                  
CALDWELL       FAIR      46   7  20 NW17G26   30.02R                  
SOMERVILLE     FAIR      49   9  19 W15G28    30.01R                  
ALLAIRE*       FAIR      49   9  19 NW20G30   30.00R                  
TOMS RIVER*    FAIR      50  13  22 NW23G32   30.00R                  

$$
PAZ043-044-047-054-055-060>062-066>071-232300-
EASTERN PENNSYLVANIA
  
CITY           SKY/WX    TMP DP  RH WIND       PRES   REMARKS
PHILADELPHIA   FAIR      52   9  17 W18G28    30.07R                  
NORTH PHILA    FAIR      52  10  18 NW22G30   30.06R                  
BLUE BELL*     FAIR      48  12  23 NW9G21    30.07R                  
DOYLESTOWN     FAIR      49   9  19 NW17G30   30.03R                  
QUAKERTOWN*    SUNNY     48  10  21 W15G22    30.05R                  
PERKASIE*      FAIR      48   9  20 NW14G30   30.05R                  
POTTSTOWN      FAIR      48  14  25 NW12G24   30.07R                  
LANCASTER      FAIR      50  15  24 W23       30.10R                  
COATESVILLE    FAIR      46  16  29 NW12G23   30.09R                  
READING        FAIR      50  12  21 NW21      30.08R                  
ALLENTOWN      FAIR      51   9  18 NW14G25   30.05R                  
MOUNT POCONO   FAIR      36  12  37 NW20G32   29.99R WCI  25          
HAZLETON       FAIR      43   3  19 W12G22    30.07R                  
LEHIGHTON      FAIR      46   3  17 W7G18     30.07R                  
WILKES BARRE   FAIR      43  11  27 N15       30.07R                  

$$
DEZALL-MDZ008-012-015-019-020-232300-
DELAWARE AND EASTERN MARYLAND
  
CITY           SKY/WX    TMP DP  RH WIND       PRES   REMARKS
WILMINGTON     FAIR      50  14  23 NW24G33   30.10R                  
GEORGETOWN     FAIR      53  17  24 NW10G24   30.11R                  
EASTON         SUNNY     52  16  24 W15G26    30.16R                  
PATUXENT       FAIR      53  18  25 NW17G28   30.15                   
OCEAN CITY     FAIR      50  19  29 NW21G30   30.10R                  
WALLOPS ISLAND FAIR      52  18  26 NW23G32   30.13R                  
CAMBRIDGE      SUNNY     52  19  28 NW12G26   30.14R                  
SALISBURY      FAIR      50  20  30 W18G31    30.12R                  

$$
PAZ001-021-NYZ056-072-MDZ011-DCZ001-232300-
OTHER NEARBY LOCATIONS
  
CITY           SKY/WX    TMP DP  RH WIND       PRES   REMARKS
HARRISBURG     FAIR      49  14  24 NW20G30   30.12R                  
STATE COLLEGE  SUNNY     45  10  24 NW10G21   30.15R                  
WILLIAMSPORT   FAIR      48   3  15 NW16G26   30.10R                  
BINGHAMTON     FAIR      33  13  43 NW15G24   30.05R WCI  23          
NEW YORK CITY  FAIR      47  10  22 W10G24    30.01R                  
BALTIMORE      FAIR      52  17  25 W21G28    30.14R                  
WASHINGTON DC  FAIR      54  15  21 NW15      30.18R                  

$$